Theta_e
306 306 306 306 307 307 307 307 308 308 309 308 306 310 303 302 299 307 309 311 308 301 292 294 291 289 293 298 296 298 297 296 298 296 297 295 297 293 293 293 291 292 291 291 290 291 288 290 289 291 291 292 295 299 299 299 297 296 288 293 288 292 286 284 285 288 288 289 288 287 288 289 287 288 288 286 285 287 285 285 285 283 283 282 282 279 283
305 305 305 305 306 306 306 306 307 306 306 303 306 303 300 302 302 300 309 311 308 299 288 288 289 290 294 295 294 299 297 296 294 295 296 295 293 294 293 293 295 292 295 292 290 292 285 290 291 289 292 291 298 297 295 297 295 294 291 290 292 286 285 286 281 282 282 284 287 288 284 284 283 283 286 289 289 289 288 288 287 283 284 284 282 277 282
303 304 304 304 304 304 305 305 305 306 306 305 304 298 302 302 304 301 303 307 306 295 298 295 291 291 291 291 290 292 293 297 297 296 295 298 295 292 291 294 293 292 292 291 291 291 290 286 289 289 288 289 295 296 295 298 293 296 295 293 294 288 285 284 279 276 274 275 277 279 282 281 282 285 286 288 288 288 286 283 285 281 284 285 282 281 287
303 302 302 303 303 303 303 305 305 305 305 304 301 299 300 295 289 298 297 301 300 300 303 300 296 292 291 289 291 293 291 295 298 298 296 298 297 297 293 289 293 291 289 288 288 289 291 288 285 287 286 289 291 293 293 295 294 295 293 292 292 286 285 286 284 282 280 283 285 289 289 285 283 284 285 285 287 288 288 287 284 281 284 283 285 286 286
302 303 303 303 302 302 302 302 304 304 304 304 301 298 298 298 292 293 288 297 296 295 298 296 298 294 296 288 291 290 291 293 294 299 293 297 296 295 295 291 290 287 289 288 289 290 289 289 288 287 287 288 290 293 291 292 293 293 291 291 288 284 283 286 286 285 286 288 287 290 290 285 286 286 286 288 286 286 286 284 282 287 284 280 286 288 285
301 301 302 302 303 303 302 301 302 303 304 304 302 291 296 288 293 298 300 293 287 290 290 296 295 297 297 292 295 292 291 291 289 295 297 297 298 293 292 295 293 292 291 290 287 288 289 288 287 289 289 288 289 289 291 290 292 291 288 290 288 284 283 286 286 285 287 288 289 289 288 288 287 287 287 286 287 286 284 284 286 287 283 281 286 288 286
300 300 301 301 302 302 302 303 302 301 302 303 299 289 293 295 295 297 300 291 295 295 294 296 294 293 295 293 294 292 292 291 293 292 291 295 293 296 288 291 293 292 293 291 288 289 286 286 289 288 288 288 288 287 288 291 293 291 289 287 287 286 283 286 286 284 286 286 287 288 287 286 286 286 286 287 287 286 286 286 287 287 285 287 287 288 287
300 300 300 301 301 301 301 301 302 302 301 301 295 294 289 288 292 288 290 290 289 290 292 291 291 289 293 289 291 293 292 292 294 295 293 290 293 297 292 292 294 293 293 291 288 290 292 291 288 291 290 288 288 287 289 289 287 289 287 287 286 288 282 289 286 283 283 286 287 287 286 285 284 286 287 287 287 287 287 287 287 287 286 287 287 286 286
300 300 300 300 300 301 301 301 301 301 302 294 293 291 295 295 295 292 287 283 285 290 291 290 289 287 288 287 288 291 291 291 295 294 298 295 292 294 292 294 294 293 293 292 292 294 294 294 294 295 293 288 291 290 286 294 287 286 284 287 284 288 284 289 286 282 280 285 285 285 285 285 284 284 285 285 285 284 285 285 287 286 284 286 286 284 285
299 300 300 300 300 300 300 300 301 300 301 294 292 287 295 294 297 295 290 282 287 286 289 289 289 284 289 290 290 291 291 294 295 290 295 297 298 297 296 296 294 292 293 292 293 296 296 296 297 297 298 299 297 297 294 294 291 285 285 287 284 285 284 283 283 280 279 285 286 284 284 283 280 281 285 286 287 287 288 289 289 289 289 285 283 284 290
300 300 300 300 300 300 300 300 300 300 299 292 291 290 292 290 289 290 289 281 284 286 285 286 285 287 291 292 291 292 291 292 293 287 288 297 296 299 296 293 291 290 292 295 299 298 297 297 298 298 297 297 297 297 295 293 293 288 286 284 285 286 285 284 286 280 280 285 284 285 280 274 276 287 290 289 286 287 285 285 287 289 290 288 290 290 293
300 299 300 300 300 300 300 300 300 300 298 296 296 293 294 294 293 290 284 278 280 286 283 282 285 286 287 288 288 286 286 287 288 292 287 290 292 293 291 291 291 284 296 298 299 298 296 296 296 295 292 291 293 294 295 293 293 294 291 288 285 285 285 283 286 282 279 284 283 279 273 275 286 291 291 291 291 290 288 288 289 290 291 291 290 291 292
299 299 299 299 299 300 300 300 299 299 299 298 296 291 295 296 291 287 285 282 278 282 280 282 286 286 286 286 285 285 287 288 289 290 290 289 288 290 291 291 289 291 296 294 295 294 289 287 288 288 289 290 291 291 291 291 291 292 292 292 289 286 285 284 283 283 283 281 279 274 274 285 287 290 291 292 291 290 288 286 289 291 291 291 290 291 293
299 299 299 299 299 299 299 299 299 299 299 298 294 294 294 295 289 287 285 281 279 283 283 282 283 283 284 284 285 285 286 286 287 288 285 289 287 288 290 292 294 293 293 295 291 290 286 287 284 285 285 287 286 285 287 291 291 291 290 291 291 289 287 286 281 285 278 279 280 278 285 284 285 286 286 288 285 286 285 281 285 291 291 292 291 291 293
299 299 299 299 300 299 299 299 299 299 299 299 295 295 294 294 293 288 288 285 278 281 283 277 280 282 283 283 284 282 282 283 283 282 287 288 287 288 290 292 292 291 293 291 286 287 285 285 281 280 282 282 277 281 287 285 289 292 292 292 291 290 286 286 284 280 286 279 278 279 278 275 281 289 290 294 293 293 291 287 285 292 292 293 292 291 292
299 299 299 299 299 299 299 299 299 299 299 299 295 293 294 295 294 292 288 284 281 275 280 284 284 283 282 282 284 282 280 281 281 282 282 283 284 287 290 291 290 292 292 289 287 285 284 281 279 280 277 280 283 283 278 283 279 285 291 291 290 290 290 287 284 281 284 280 277 276 276 279 287 288 292 293 294 293 291 286 281 289 291 292 292 291 292
298 298 298 298 298 298 298 298 299 299 299 299 294 293 292 296 293 290 286 284 282 277 285 286 285 285 282 280 283 281 282 280 282 278 276 278 280 283 285 287 286 290 287 284 282 283 281 280 282 281 282 285 281 281 285 282 278 279 285 287 287 286 286 285 282 280 282 280 278 276 282 281 287 290 291 293 294 294 285 277 278 291 292 293 293 292 292
298 298 298 298 298 298 298 298 298 299 299 299 296 293 292 296 295 293 288 284 280 280 285 287 284 281 280 281 279 283 284 282 281 282 280 281 282 282 283 283 281 286 288 280 281 280 279 279 276 277 277 285 286 284 277 283 281 280 282 282 282 283 283 285 279 281 281 282 280 282 283 288 290 290 292 292 292 288 280 276 285 291 293 294 294 293 293
298 298 298 298 298 298 298 298 299 298 298 299 296 293 292 295 295 294 288 285 282 278 285 289 289 284 286 288 284 284 284 283 281 277 277 277 279 283 282 282 285 277 282 279 280 277 276 277 282 280 277 279 284 278 281 280 280 283 281 279 280 281 282 282 284 280 280 280 279 279 283 288 293 293 293 290 286 279 279 287 290 289 288 289 290 289 289
297 297 297 298 298 298 298 298 298 298 299 299 296 290 292 295 295 294 288 282 284 281 285 286 287 284 288 284 281 281 282 283 282 279 277 274 281 282 278 273 281 281 278 281 275 279 277 274 278 279 277 277 277 281 274 276 279 273 275 277 276 280 280 277 280 282 282 281 278 277 274 284 284 286 289 288 284 283 286 288 290 291 289 288 289 289 289
297 297 297 297 297 297 297 297 298 298 298 298 298 292 289 294 294 295 295 290 284 280 282 289 289 287 288 286 287 286 284 280 281 279 280 280 281 278 268 269 274 274 270 275 271 273 277 273 275 275 278 274 273 276 269 273 273 277 279 278 279 281 274 277 281 283 276 277 276 276 282 284 288 284 279 282 284 287 290 289 287 291 290 288 287 288 288
297 297 297 298 298 299 299 299 298 298 297 298 297 293 288 293 295 295 295 293 285 282 284 289 291 289 290 291 290 290 288 287 288 287 282 279 281 280 277 278 276 277 277 279 273 272 275 274 276 273 271 273 276 271 273 270 267 274 279 280 273 287 279 280 275 281 278 275 280 284 286 285 287 286 284 285 287 289 290 290 288 287 288 288 286 286 287
297 297 297 297 298 299 298 298 298 298 298 298 296 291 289 291 292 295 293 286 288 289 290 288 289 289 291 291 293 292 291 292 291 289 287 282 279 282 280 279 277 282 279 281 276 276 275 274 271 274 272 273 272 272 274 273 271 276 273 279 278 281 281 282 281 279 284 284 284 285 283 282 283 284 285 285 286 288 289 287 286 286 286 287 286 286 286
296 296 296 296 297 297 297 297 296 297 298 298 298 290 289 291 292 291 290 288 284 281 284 287 284 281 283 284 289 291 292 291 291 290 291 288 279 278 282 281 282 280 277 281 283 277 276 276 274 276 271 275 276 270 269 269 271 275 275 273 277 279 282 279 276 278 275 270 282 280 280 282 282 282 283 284 286 289 288 286 285 285 285 285 285 285 285
296 297 296 296 297 297 297 296 296 297 297 297 296 295 294 291 292 291 285 279 280 279 275 280 283 286 289 291 291 289 290 292 293 291 290 289 286 281 279 283 285 280 279 282 283 279 278 274 275 275 270 276 277 269 275 271 270 278 271 274 276 273 281 276 275 275 273 272 278 279 280 281 281 281 281 283 286 286 286 285 284 284 283 283 283 284 283
296 297 297 297 296 297 297 297 297 296 296 297 295 291 290 290 292 292 289 288 285 282 275 275 279 288 290 288 286 289 291 291 291 291 290 290 290 288 285 285 284 287 284 284 282 278 276 275 274 273 271 271 280 273 273 276 274 277 273 272 277 276 279 271 275 274 275 279 278 279 280 280 282 282 283 284 283 283 282 282 282 282 282 283 284 284 284
296 297 297 296 296 296 297 297 297 296 297 297 294 293 292 292 293 290 286 286 280 275 278 275 280 281 282 284 289 290 291 290 290 289 290 289 288 288 287 285 283 283 283 281 282 279 276 275 275 272 275 273 278 275 275 273 273 271 271 274 277 275 271 276 275 271 272 273 276 279 273 272 277 278 279 280 281 282 281 282 282 282 282 283 283 283 284
295 296 296 296 296 296 296 296 296 296 296 295 295 293 294 292 292 293 293 290 284 276 278 278 277 278 284 276 285 288 289 290 289 289 288 287 288 287 286 285 284 282 281 279 275 276 275 273 272 277 277 274 274 272 277 277 276 272 272 274 277 274 274 274 271 272 271 275 277 277 277 276 278 279 280 281 282 281 280 280 280 280 281 282 281 281 281
296 296 295 295 295 296 296 296 296 296 296 296 292 290 288 291 293 293 293 292 290 284 281 281 283 281 276 280 286 284 287 288 287 287 286 286 286 286 285 284 282 282 281 280 279 277 276 275 278 275 273 278 275 270 273 269 269 268 271 275 276 277 277 276 275 275 276 277 277 277 277 275 278 280 280 281 281 279 278 279 280 280 280 280 280 279 279
295 295 296 295 295 295 295 295 295 296 296 292 287 284 281 284 291 292 294 292 290 286 278 276 274 277 283 281 279 282 284 287 286 286 285 285 284 284 284 283 283 284 282 279 278 274 277 276 277 279 279 282 275 272 271 270 269 271 276 277 277 278 278 278 278 276 275 278 278 278 277 278 279 280 280 279 278 278 277 277 279 279 279 279 278 278 279
295 296 295 295 295 295 295 295 295 295 295 288 284 279 277 275 284 293 294 292 291 286 280 280 276 282 278 279 279 280 282 283 283 283 284 284 284 284 285 284 283 284 279 280 279 278 279 274 275 276 279 280 279 272 271 270 268 270 275 276 277 277 277 278 279 279 279 278 276 275 276 277 279 277 276 276 276 277 277 277 277 278 277 277 277 277 277
295 295 294 294 294 294 295 295 295 295 292 287 284 282 283 283 288 291 294 294 291 284 279 275 275 275 275 278 280 281 282 283 283 283 283 285 282 284 284 284 281 283 282 278 279 278 276 278 276 276 276 280 280 273 273 270 269 270 275 276 277 278 278 278 278 279 276 273 272 273 273 274 274 272 271 274 275 275 275 274 274 274 276 275 275 275 275
295 295 294 294 295 294 294 296 296 295 290 293 296 296 295 294 293 293 294 289 286 282 283 277 273 275 273 274 277 275 279 278 280 280 278 283 279 282 280 283 283 282 286 280 277 274 279 278 278 274 277 280 275 274 271 270 271 275 276 277 277 277 278 278 276 274 271 271 271 267 268 269 270 272 273 273 272 271 272 272 272 271 270 270 270 271 272
294 294 294 294 294 295 295 295 295 294 293 288 283 286 290 294 293 294 290 286 280 281 281 277 273 273 272 278 271 275 281 276 274 279 274 281 281 280 278 278 280 277 279 277 278 278 276 276 273 274 276 274 276 272 268 271 275 275 276 276 278 276 273 272 272 270 269 268 269 269 269 270 271 271 270 269 269 270 270 270 268 267 266 267 268 269 270
294 294 295 294 294 294 294 293 289 287 285 285 285 288 291 294 294 293 289 280 274 275 276 275 276 271 271 271 269 273 278 275 273 278 274 276 283 278 279 275 277 274 274 282 276 276 273 274 276 273 270 274 271 268 270 273 274 275 276 276 270 267 268 267 268 267 266 267 266 266 267 269 268 265 266 267 267 267 267 266 266 265 264 265 267 267 268
293 294 294 293 293 292 289 289 286 284 282 282 283 290 293 295 294 292 289 285 283 277 275 274 276 271 272 268 268 272 278 273 277 278 276 276 274 279 278 275 271 275 278 276 272 275 272 277 274 269 274 268 268 270 272 275 274 273 268 266 265 266 264 265 264 265 264 264 263 264 266 266 264 264 265 265 265 265 265 264 264 264 263 264 264 265 266
294 293 293 292 288 285 283 283 287 285 283 288 290 293 294 291 285 286 285 284 283 283 277 275 272 272 273 271 273 275 275 267 276 273 274 273 272 275 274 272 270 275 273 270 271 271 274 279 272 269 268 268 269 275 273 269 267 266 265 264 264 264 264 264 264 263 261 261 262 264 263 261 261 262 263 263 263 263 262 261 262 262 261 261 262 263 263
293 293 285 282 281 279 279 282 283 287 292 292 291 283 280 284 278 275 277 277 281 281 277 278 272 275 277 273 269 276 274 271 276 270 272 275 272 271 275 272 271 273 264 268 271 277 272 271 270 269 270 274 276 269 265 266 265 264 264 263 263 263 263 263 262 261 258 258 261 261 260 260 260 260 260 260 261 260 261 262 262 262 261 261 261 262 262
289 284 283 283 280 278 279 281 289 293 290 288 285 279 276 279 276 274 274 277 278 274 278 276 273 276 275 273 274 280 275 270 270 271 267 274 270 265 272 265 272 272 266 267 268 277 266 268 269 268 268 270 272 265 264 264 264 262 262 261 262 261 261 262 262 260 259 258 259 259 259 258 258 259 260 259 260 260 261 260 260 260 260 260 260 260 260
283 281 281 280 279 280 286 288 292 289 285 279 279 278 272 276 273 269 276 271 272 275 277 271 276 275 276 273 273 272 279 273 269 269 268 270 277 268 272 268 269 269 263 265 267 274 265 263 266 265 264 269 266 260 261 260 261 260 260 259 260 259 261 261 260 261 260 260 261 260 260 260 260 260 259 259 259 258 258 259 259 259 259 259 260 260 259
281 280 279 278 280 283 284 286 285 284 280 276 275 274 272 268 271 270 271 268 267 267 273 271 273 271 275 275 276 272 278 277 274 275 272 269 276 273 266 262 272 264 263 262 270 269 267 264 265 264 266 264 258 259 258 258 258 257 258 259 258 259 259 259 259 259 259 258 259 258 259 258 258 258 258 258 258 258 258 258 258 258 258 258 258 258 259
283 280 280 284 284 284 282 281 282 277 277 277 272 268 271 271 271 267 268 265 267 269 268 270 266 270 270 275 274 274 273 275 273 274 269 264 275 271 268 268 269 264 261 267 269 268 267 263 263 265 262 255 258 256 256 254 256 255 256 257 257 258 258 257 257 258 258 257 257 257 257 257 257 257 257 257 257 257 257 257 257 257 257 258 259 259 259
291 287 285 281 281 280 282 274 278 276 269 270 268 265 269 265 268 266 265 269 269 266 267 272 269 276 273 275 270 273 272 278 273 272 269 266 274 268 262 263 262 258 263 269 266 264 263 262 262 264 256 256 254 255 254 255 255 255 256 256 257 257 257 257 256 256 256 256 256 256 256 256 256 256 257 257 257 257 257 257 257 257 258 258 258 258 259
284 283 280 279 276 276 277 267 275 270 269 269 266 263 266 263 265 265 261 264 265 265 269 267 269 270 266 272 270 273 272 274 278 271 270 272 268 265 263 259 260 266 268 262 264 262 263 264 263 258 253 254 255 255 254 254 254 254 254 256 256 256 256 256 256 255 255 256 256 256 256 256 256 256 257 257 257 256 256 256 257 258 258 258 258 258 259
279 277 276 274 271 275 271 265 272 268 264 266 270 266 266 262 265 265 265 263 265 266 266 267 267 267 268 270 270 270 274 268 277 269 266 269 264 267 263 261 265 267 262 261 262 263 262 264 257 252 254 252 255 253 254 254 254 253 254 254 254 254 254 254 254 254 254 254 254 255 255 255 255 255 255 256 256 257 256 256 257 257 257 258 258 259 260
276 274 273 270 266 269 266 263 264 260 264 268 267 267 267 267 265 264 259 258 264 266 265 264 265 268 267 271 268 268 271 272 269 268 270 269 263 262 267 269 265 259 261 262 259 260 262 263 254 253 253 253 253 253 253 253 254 254 253 252 253 253 253 253 253 253 253 253 254 254 254 255 255 255 255 255 256 256 256 256 257 258 258 258 258 259 260
276 277 274 273 268 269 268 262 262 263 263 263 261 261 262 261 259 260 258 259 261 263 263 264 265 267 267 268 269 269 268 269 264 269 267 262 262 266 271 263 260 262 258 259 259 260 262 254 251 253 253 253 252 252 253 253 253 253 252 252 252 252 253 252 252 252 253 254 254 254 254 254 254 255 255 255 255 256 256 257 257 258 258 257 259 260 260
272 275 274 266 264 266 262 263 261 261 261 261 261 262 262 262 261 258 258 258 260 262 261 262 264 266 266 271 269 266 267 267 262 266 268 263 266 260 261 261 261 262 261 258 261 257 252 252 252 252 253 252 253 252 252 252 252 252 252 252 252 252 252 252 252 253 253 253 253 253 253 254 254 255 255 255 255 256 256 257 257 257 258 259 259 259 259
274 270 268 266 268 268 265 264 265 263 259 261 263 263 262 261 258 257 258 258 258 258 260 261 266 267 266 270 267 268 265 269 262 264 267 264 260 260 260 258 258 258 260 254 252 249 251 252 252 252 252 252 252 252 252 252 252 252 252 251 251 252 252 252 253 253 253 253 253 253 253 254 255 255 255 255 255 255 257 257 257 257 259 259 258 258 258
271 269 270 267 265 265 265 265 265 262 260 262 263 262 262 261 258 256 258 257 259 259 264 267 269 268 267 265 260 262 261 265 262 265 262 260 259 259 261 258 260 258 256 248 248 250 251 252 252 251 251 250 251 251 251 251 252 252 252 252 252 253 253 253 252 253 253 253 253 253 254 255 255 255 255 255 256 257 257 257 257 258 258 258 258 258 258
273 268 263 262 264 262 262 262 262 262 262 262 261 259 259 259 260 258 259 257 258 260 263 263 265 263 263 264 262 258 260 264 261 261 261 261 264 260 259 259 255 243 245 250 251 251 251 251 251 250 250 250 250 251 251 251 251 251 252 252 252 253 252 253 252 253 253 253 254 255 254 255 255 256 256 257 256 256 255 256 257 257 257 258 258 258 258
271 267 263 260 260 261 260 258 256 255 254 255 255 256 258 256 256 256 259 259 257 260 262 263 262 262 261 259 259 259 260 260 259 259 257 259 252 255 256 250 244 245 248 248 249 250 250 250 250 250 250 250 251 251 251 251 251 252 252 252 252 252 252 252 252 252 253 253 254 254 255 255 256 256 256 255 255 254 253 253 255 256 256 257 258 257 257
Wind_Speed
7 7 8 9 9 10 11 12 14 16 18 4 4 3 4 5 6 4 12 15 17 10 7 7 7 8 5 3 6 3 6 4 4 9 9 10 4 2 4 10 9 9 11 8 9 7 10 8 12 8 7 9 8 4 10 10 6 7 4 3 3 7 1 3 10 6 4 5 1 1 1 0 3 4 5 4 11 13 12 10 7 11 4 7 9 15 16
5 7 7 7 8 8 10 10 11 13 14 6 5 4 4 4 3 1 6 14 12 10 9 6 10 9 5 5 9 6 6 5 8 10 7 7 5 10 6 6 15 12 8 5 10 5 10 6 16 12 10 14 5 7 8 5 1 2 3 0 3 1 3 6 6 5 4 6 8 8 3 4 1 3 5 6 9 8 9 9 6 14 14 14 14 22 9
9 6 8 9 8 7 8 9 10 11 11 9 4 3 3 4 1 3 5 10 10 14 9 12 9 12 14 13 16 10 8 7 14 14 15 9 9 3 6 9 2 4 3 10 8 7 13 7 2 5 2 6 1 7 7 2 3 2 1 4 2 1 2 4 3 8 10 10 11 11 8 4 3 3 8 10 9 12 10 13 9 16 9 16 18 17 14
12 12 9 8 8 8 7 8 9 10 10 9 5 4 3 4 6 3 4 8 11 10 5 11 10 10 12 14 15 13 15 7 14 16 18 14 13 14 4 3 2 8 4 7 9 12 9 12 4 6 4 7 6 6 0 4 5 4 6 3 2 1 2 7 11 12 14 14 13 11 6 3 7 7 7 9 10 10 11 10 12 14 12 17 18 17 21
10 12 13 12 11 9 9 7 8 8 9 8 3 3 3 5 6 3 5 3 12 10 8 11 9 14 11 10 6 17 21 12 11 14 11 12 19 11 12 4 6 4 8 13 14 15 13 13 13 13 11 9 10 3 4 3 6 7 2 5 4 4 6 13 17 20 19 18 20 19 16 16 17 17 19 15 12 13 16 14 16 12 15 22 14 19 19
11 10 10 11 12 12 11 10 5 6 7 7 1 2 3 8 5 6 2 4 4 9 10 11 12 13 14 14 7 16 14 13 15 7 20 9 10 7 3 18 16 17 16 9 12 7 14 10 13 9 15 13 13 15 13 13 11 7 2 4 6 7 11 14 15 21 21 22 23 22 22 21 22 21 19 20 18 12 12 13 15 16 17 22 15 18 21
11 11 10 10 10 10 10 11 10 5 3 4 2 3 4 5 5 5 6 4 3 7 4 10 12 13 14 11 14 19 17 21 16 12 5 10 9 14 15 14 19 22 20 18 15 11 10 11 11 12 11 18 13 10 4 14 16 14 9 5 4 3 11 11 16 19 18 19 21 21 23 20 21 20 21 22 21 23 23 25 25 25 25 24 24 25 30
11 11 11 10 10 9 9 9 9 11 9 3 3 4 5 4 3 3 7 4 6 10 9 2 3 9 8 10 7 11 18 22 16 11 12 12 11 12 22 21 19 21 21 21 19 17 20 22 18 12 14 11 7 10 14 7 2 7 11 5 3 11 8 14 15 14 17 19 21 20 22 21 25 24 22 21 22 25 28 26 25 25 24 25 26 25 25
12 12 11 10 10 10 10 8 8 8 7 3 4 4 4 3 2 1 5 8 7 6 7 7 8 8 6 9 11 13 16 16 14 18 12 19 14 12 22 21 21 16 19 22 24 23 24 24 27 24 15 15 11 12 2 16 8 5 3 4 2 11 8 6 7 11 14 14 21 23 24 24 26 24 23 23 26 27 25 22 25 24 26 27 24 19 19
13 12 12 11 11 10 10 9 8 7 6 3 4 5 3 2 2 3 2 7 4 9 4 9 6 11 5 10 10 7 9 12 10 14 10 19 18 17 17 16 15 16 19 24 24 23 23 24 25 21 20 20 15 14 8 11 13 6 10 7 7 7 4 7 9 15 16 13 20 22 22 20 18 19 24 33 34 29 23 23 23 22 21 19 18 23 24
13 12 13 12 12 12 11 10 10 8 3 3 4 4 3 3 4 2 1 7 3 8 6 7 11 10 11 11 12 9 14 14 14 14 4 3 8 10 12 14 12 10 13 9 9 10 11 12 12 10 14 18 22 19 14 13 7 11 10 4 4 8 12 12 8 11 9 12 18 13 13 18 17 15 30 31 31 27 28 25 27 30 23 19 20 23 20
14 14 13 13 13 12 12 11 11 10 7 4 3 4 4 3 3 2 2 7 7 6 7 7 7 6 9 10 9 11 11 12 12 11 15 8 13 15 17 14 11 11 7 16 16 17 18 14 12 10 9 11 15 17 20 18 18 14 11 12 10 13 12 12 7 8 10 10 10 12 21 20 9 15 15 21 25 26 29 29 29 29 28 26 25 26 25
16 15 15 14 14 13 13 12 12 11 9 4 4 6 3 1 3 2 3 5 7 6 9 7 5 10 10 10 12 13 13 15 14 14 14 11 13 11 8 10 11 11 13 15 18 16 14 14 12 12 17 14 14 16 18 19 18 15 13 15 14 13 12 8 7 8 6 6 8 15 16 2 3 9 13 14 16 19 20 24 25 28 28 29 28 25 23
17 17 17 16 15 14 14 13 13 12 12 8 5 5 4 3 3 4 4 4 7 8 9 11 10 14 12 11 10 10 10 11 11 11 16 10 13 10 11 9 7 9 9 10 11 11 13 4 11 6 8 5 9 10 15 21 25 22 24 20 20 22 16 12 11 10 15 10 14 21 12 12 4 5 6 11 16 13 18 22 25 28 27 25 25 24 23
17 17 17 17 16 15 15 14 14 13 13 12 6 5 5 5 5 4 2 5 8 8 7 11 7 11 10 10 11 13 12 13 12 12 11 10 11 7 7 7 8 9 6 6 5 2 9 8 13 10 9 8 9 7 3 8 7 25 27 25 23 19 20 15 16 11 14 15 11 12 10 14 14 13 12 19 22 23 22 18 24 9 15 16 21 22 25
17 17 16 17 17 16 16 15 15 15 14 14 8 6 6 6 4 3 5 4 5 10 8 11 11 4 4 6 5 9 8 8 8 9 9 7 6 11 7 9 7 7 5 3 2 5 6 12 14 12 13 11 7 7 4 2 3 4 20 26 23 22 22 20 18 12 13 16 15 16 15 16 6 16 17 19 18 18 18 14 22 4 10 12 20 24 24
18 18 17 17 17 17 17 17 16 16 15 14 7 6 6 6 6 6 5 4 6 11 8 1 3 2 5 7 7 7 6 8 5 7 6 5 9 9 8 4 4 2 4 6 3 4 8 11 12 13 14 8 13 12 7 2 3 2 0 8 20 21 16 15 17 16 8 12 14 16 8 13 9 11 12 18 19 15 4 17 14 10 16 18 21 23 20
20 19 18 18 18 18 18 18 17 17 17 17 10 6 6 5 6 5 5 8 9 9 10 10 7 7 9 8 9 6 6 5 5 5 8 7 6 6 6 1 4 2 4 4 2 9 10 11 14 13 16 6 6 4 15 7 8 3 5 6 8 11 13 16 25 18 18 23 18 13 9 5 3 8 9 10 8 4 12 22 8 2 10 14 16 17 16
19 19 19 19 19 19 19 18 18 18 17 17 9 7 8 8 5 5 6 6 7 9 7 5 6 9 6 5 8 6 3 4 5 6 6 8 4 1 4 3 3 5 3 6 5 7 9 10 7 9 13 12 8 9 8 5 8 7 10 7 6 6 6 6 12 16 14 13 15 17 12 4 5 9 10 3 3 7 13 7 14 13 17 17 14 14 15
20 20 19 19 19 19 19 19 18 18 17 18 10 7 8 6 7 10 9 10 7 10 10 11 8 13 6 9 8 8 5 6 4 7 5 9 4 7 6 6 2 4 4 5 11 7 11 13 8 4 6 5 2 6 5 5 3 3 6 5 7 6 6 3 7 9 11 11 12 9 12 3 17 19 7 3 5 4 10 10 9 11 12 15 15 13 12
21 20 20 20 19 18 19 20 19 18 18 19 14 6 8 8 8 6 6 8 9 11 10 12 10 13 11 13 14 12 10 11 8 9 7 9 4 5 3 3 1 3 2 3 8 5 4 5 5 5 1 3 6 7 7 9 15 11 5 6 8 6 7 6 3 6 6 5 7 3 5 5 9 12 4 9 8 13 12 11 10 10 10 12 12 13 14
22 21 20 20 19 19 19 17 17 18 19 19 17 7 9 7 5 6 7 8 10 12 9 5 1 3 5 7 9 8 9 10 11 10 8 8 4 7 4 6 4 1 2 2 2 2 3 3 2 5 8 9 5 10 10 15 14 12 7 6 9 2 1 2 10 5 5 5 10 13 13 7 3 2 5 8 11 8 5 8 7 9 11 10 8 12 14
22 22 22 21 21 19 19 19 18 18 19 18 11 8 10 7 5 7 7 9 8 8 6 9 9 10 9 12 12 12 13 10 7 6 8 8 9 8 9 7 9 5 3 3 7 7 6 5 9 5 9 5 9 12 10 9 8 4 11 3 8 11 18 13 9 6 8 11 12 14 7 12 19 16 8 10 13 6 3 4 8 10 6 7 11 12 12
23 23 23 22 21 21 20 20 20 19 20 18 13 5 7 8 6 4 4 8 8 9 9 10 9 10 12 17 17 14 11 12 14 15 11 8 10 9 6 5 4 3 3 5 4 5 4 4 4 4 9 6 6 8 10 12 9 6 10 14 9 6 5 7 5 8 14 10 3 13 17 21 23 26 26 14 4 6 7 6 5 8 12 14 11 12 15
24 23 24 23 21 20 20 21 20 19 19 20 16 11 7 6 5 7 7 7 6 8 9 4 13 17 17 13 10 9 11 13 12 13 13 13 13 12 14 13 6 7 8 7 2 1 1 6 5 4 10 5 5 12 6 11 11 5 11 8 10 11 6 17 11 16 13 16 16 19 17 22 20 16 14 14 8 4 6 6 9 11 12 13 15 15 15
24 24 23 23 23 21 20 20 20 21 20 20 16 8 7 9 6 6 8 8 7 5 10 11 12 5 6 8 11 13 12 10 10 13 13 14 15 14 13 9 9 9 9 6 5 7 6 6 5 6 8 7 6 9 7 7 11 8 13 15 10 13 13 16 9 16 16 18 18 14 15 12 12 10 6 11 16 17 17 14 14 14 14 14 15 12 14
24 23 22 23 24 22 21 21 20 22 21 19 12 8 9 8 7 8 8 5 6 9 10 11 9 4 0 10 7 7 7 8 8 10 11 10 11 11 11 11 11 8 9 8 6 6 4 6 6 10 8 8 5 8 6 8 6 9 11 11 8 9 11 13 13 14 14 11 11 13 15 15 19 21 18 16 13 15 16 17 15 12 11 11 13 12 11
24 23 23 23 23 22 22 22 22 21 21 21 14 10 9 9 9 10 11 10 12 13 8 7 2 2 0 3 6 7 6 6 8 9 10 10 11 11 11 11 11 9 8 8 8 7 7 9 11 7 6 4 7 8 8 10 7 9 9 8 5 11 13 11 12 10 14 14 18 17 21 22 18 19 19 18 16 13 13 12 12 13 12 11 13 15 16
22 23 24 23 23 22 22 22 22 22 21 17 7 8 7 10 10 9 11 10 10 12 12 11 9 7 9 5 3 7 9 9 8 9 9 9 9 8 11 12 11 10 9 8 8 7 8 9 6 6 5 4 5 7 6 8 7 11 7 8 9 9 10 14 17 21 23 20 17 12 13 16 18 17 15 13 10 10 11 12 14 15 15 14 14 15 17
23 22 22 23 23 22 22 22 22 21 19 7 0 2 5 6 8 10 12 12 11 8 8 9 9 4 1 2 4 4 4 7 10 10 10 8 10 12 12 12 12 11 9 8 8 9 9 7 6 6 7 6 8 4 7 5 9 10 7 10 12 14 14 15 13 15 17 15 16 11 11 13 11 12 9 7 10 14 13 13 13 15 17 17 18 16 14
21 21 23 23 22 23 22 22 22 21 18 5 4 5 5 9 3 10 16 13 13 9 4 6 11 3 4 3 3 9 10 8 9 10 13 13 12 11 10 9 10 9 10 10 9 11 7 7 7 7 6 9 8 3 8 9 11 8 8 12 14 15 14 16 16 15 17 12 7 7 8 10 9 10 7 9 14 14 14 13 16 15 16 17 17 16 16
21 22 22 22 23 22 22 23 23 19 10 7 9 9 6 3 1 1 11 11 8 7 7 7 6 4 3 2 3 4 8 10 9 7 7 7 9 10 10 10 10 10 9 9 9 5 7 9 10 9 7 9 10 6 8 11 13 13 11 15 13 15 14 14 13 12 4 8 8 11 10 11 7 7 10 13 11 9 12 14 13 13 13 12 14 15 15
22 22 22 22 21 21 22 22 23 17 9 10 16 23 19 9 5 4 9 6 4 4 3 5 5 2 1 3 0 2 1 3 5 5 7 7 8 7 9 9 9 9 9 9 5 5 6 9 7 9 10 8 6 7 10 13 13 13 14 15 15 14 15 9 4 3 5 6 8 2 9 10 13 15 11 9 11 12 11 11 12 14 14 14 14 14 14
22 21 21 21 21 21 21 21 22 19 15 8 7 9 11 18 12 11 6 6 2 2 1 2 2 4 3 2 2 3 7 5 4 7 5 5 5 5 6 4 6 6 5 10 7 5 4 4 7 9 4 6 7 6 10 11 13 16 15 15 14 9 4 4 4 5 8 8 6 4 7 11 12 10 11 13 13 11 10 10 10 13 16 16 16 16 15
22 20 20 20 18 18 19 15 7 2 6 5 5 4 5 17 20 15 12 4 5 1 2 3 1 2 2 2 3 5 3 2 4 7 7 4 7 7 5 5 4 6 4 5 4 6 7 7 5 6 10 7 6 9 8 12 14 12 13 11 6 8 6 8 3 6 9 8 9 9 10 7 7 10 12 14 15 15 15 15 14 12 14 17 18 17 16
21 19 16 17 12 6 2 2 4 3 3 6 5 5 13 15 17 12 12 6 1 3 4 3 4 6 5 7 5 2 3 3 4 3 4 1 2 3 3 3 6 8 3 3 6 6 7 5 4 10 6 6 9 7 11 12 13 8 3 5 6 6 3 5 9 13 13 12 11 10 7 6 9 11 11 12 13 14 16 17 18 14 13 15 17 17 17
17 14 11 6 2 1 3 4 2 6 5 5 6 7 12 10 6 4 0 1 1 0 2 3 4 7 9 6 0 3 3 3 4 4 3 5 5 1 3 3 7 2 2 5 6 8 9 6 6 9 7 10 9 12 4 4 4 4 4 4 5 5 5 5 7 9 13 16 12 3 4 9 11 9 9 11 13 13 16 19 18 16 18 20 19 18 18
14 9 1 2 1 2 4 4 3 3 6 10 12 6 1 1 3 1 1 1 1 3 2 1 4 2 1 2 5 2 3 4 5 3 1 2 0 3 3 3 4 3 6 6 7 5 2 4 6 9 10 10 12 4 6 5 7 7 6 6 5 5 7 6 6 8 11 16 17 18 19 19 19 17 13 16 15 17 17 16 16 15 14 14 15 16 16
4 2 2 2 2 4 3 1 2 6 2 2 1 1 1 1 1 1 2 2 2 3 2 4 6 7 7 7 8 3 4 1 1 1 2 2 3 4 1 1 3 2 5 2 5 9 4 5 6 5 9 5 8 5 5 8 6 7 7 6 5 7 7 5 6 6 7 5 10 11 7 11 16 21 18 16 16 15 15 15 16 17 16 16 16 16 17
3 2 4 3 5 4 1 2 4 5 2 1 2 0 1 1 2 2 2 1 1 1 2 6 5 6 9 12 10 8 3 3 6 6 3 4 2 3 2 1 4 1 3 4 4 4 3 5 4 4 5 6 2 7 7 7 6 7 7 5 7 8 7 7 8 6 8 12 12 12 11 10 11 13 16 17 17 20 22 20 18 16 16 17 19 20 20
2 1 1 3 2 2 1 2 3 1 2 2 1 1 2 1 1 0 1 2 2 2 2 2 2 3 4 5 6 9 2 3 2 1 2 6 1 2 1 2 2 1 3 3 2 2 3 4 4 6 6 3 5 6 7 7 6 8 8 8 9 9 8 10 10 11 11 11 11 10 10 10 12 13 14 17 18 18 19 20 21 20 21 21 22 21 18
5 5 2 4 3 2 2 0 2 1 1 1 2 2 2 1 2 2 1 3 4 2 3 2 2 2 2 5 5 2 2 1 1 1 1 2 1 3 3 1 1 2 3 2 1 2 1 5 3 6 2 4 4 5 8 6 8 10 8 10 10 6 10 11 13 10 8 12 13 13 12 11 13 13 13 15 18 19 19 20 22 22 20 19 19 19 19
10 9 5 3 2 1 1 1 2 1 2 2 2 2 2 2 3 4 2 1 1 1 2 2 2 1 1 2 2 1 2 0 0 1 1 2 1 2 0 1 0 2 3 1 1 0 3 4 5 3 4 2 5 6 7 6 8 7 9 10 8 9 11 12 12 13 12 11 13 14 14 15 15 14 13 16 18 22 21 18 19 21 21 19 20 19 20
3 1 2 1 1 2 2 4 1 2 2 2 3 4 3 1 2 3 1 2 2 0 1 1 1 2 1 1 2 0 2 1 2 1 1 1 1 1 1 1 4 3 2 1 1 5 6 4 3 1 2 4 4 8 10 10 10 11 11 8 8 10 9 11 12 14 15 12 11 12 13 14 15 15 13 14 16 20 22 20 17 18 21 19 19 19 19
4 1 2 1 2 1 3 2 2 2 3 3 3 3 3 5 4 6 5 1 2 2 1 2 1 1 1 1 1 2 2 1 2 3 2 2 0 2 2 3 1 1 1 4 2 4 1 6 3 2 6 9 10 10 10 9 9 11 15 17 12 10 11 13 15 14 15 15 16 16 15 14 15 16 16 15 15 14 17 20 19 19 18 18 19 20 18
2 3 3 3 2 1 2 1 1 0 2 1 2 0 1 0 2 2 1 1 1 4 3 2 2 1 1 1 2 1 2 1 1 2 2 1 2 3 3 1 3 1 3 3 5 9 11 4 3 4 8 8 10 11 9 9 9 9 11 15 18 18 16 15 15 15 16 16 17 16 17 15 16 17 18 17 16 16 16 17 17 17 19 20 20 20 17
2 1 1 0 1 1 2 2 3 2 0 2 2 1 1 2 2 3 1 2 2 2 2 3 0 1 1 0 1 1 0 0 1 1 3 0 2 2 1 1 3 2 3 6 7 7 4 4 3 7 8 11 12 10 10 11 10 11 12 13 15 17 17 17 17 16 17 17 17 18 17 16 17 17 17 18 18 16 16 17 18 18 18 19 19 17 16
2 1 1 2 3 2 3 2 3 4 4 3 1 1 1 3 2 2 3 2 2 2 1 2 1 1 1 1 2 2 0 1 1 3 2 2 1 0 1 1 4 3 3 4 8 1 2 4 8 10 10 9 11 14 14 13 13 13 14 15 17 17 18 18 19 18 17 19 19 18 17 17 17 17 17 18 19 18 16 16 16 17 17 17 14 13 14
2 1 2 1 0 1 1 2 5 3 1 1 1 2 1 3 3 1 2 2 2 1 2 0 1 1 1 2 1 1 2 1 2 2 1 0 1 3 2 4 4 7 2 1 2 4 5 9 8 10 11 11 10 12 12 11 13 15 15 16 17 17 17 17 18 19 19 17 17 17 18 18 18 17 17 17 18 18 16 16 17 17 15 14 13 13 14
2 0 0 1 2 1 2 1 0 2 2 1 1 2 2 3 2 1 2 2 2 2 2 3 3 0 1 2 1 0 2 0 2 1 1 3 2 1 2 7 6 5 2 2 3 6 7 8 9 12 11 12 12 12 14 15 14 15 15 15 15 15 15 17 19 19 18 17 18 19 20 19 17 15 17 18 17 17 17 16 16 15 15 14 14 13 12
3 4 3 3 0 1 1 3 3 3 4 2 3 1 2 2 2 1 4 2 4 2 1 1 1 1 0 1 0 0 2 1 1 3 3 4 2 3 4 9 2 2 5 5 6 8 8 7 8 10 13 13 13 14 14 15 16 16 16 16 15 14 15 16 18 18 18 17 18 20 19 17 16 17 17 16 16 16 15 14 13 14 15 14 12 12 11
1 2 2 3 5 4 3 5 5 5 3 2 2 1 1 1 2 2 4 3 3 1 1 1 1 1 1 3 2 0 1 1 2 1 2 2 3 2 3 0 1 3 5 9 9 6 7 6 7 10 10 13 15 15 16 15 16 16 16 17 16 16 17 17 17 17 18 18 17 17 18 19 19 16 14 14 14 13 12 11 13 14 15 12 11 16 14
Wind_Direction
341 343 350 4 5 8 12 15 16 19 7 341 2 331 236 211 243 49 151 160 153 152 211 196 203 220 243 340 305 253 263 259 235 244 238 260 214 267 235 237 259 245 251 258 268 260 269 258 255 277 290 292 300 4 1 1 345 345 317 10 327 77 189 226 261 300 314 287 254 67 27 31 321 275 255 198 218 213 230 244 255 259 234 217 242 244 255
321 331 341 349 1 3 6 8 18 21 23 356 318 269 255 260 219 192 211 182 173 172 200 208 226 231 269 224 258 227 249 231 249 244 215 216 167 225 222 244 222 248 230 243 249 234 275 199 244 255 258 259 299 346 1 24 31 256 269 144 279 67 261 193 258 265 302 317 334 296 46 46 291 276 258 247 263 264 258 268 263 261 236 247 251 252 259
311 310 323 323 330 353 359 8 8 21 15 16 310 266 307 293 258 166 184 209 202 203 193 226 209 210 226 224 238 236 246 219 231 236 239 222 236 253 236 228 129 237 165 237 237 223 227 273 307 313 266 284 302 297 267 35 250 71 48 123 28 154 300 346 256 243 251 255 248 249 262 234 221 238 247 250 243 244 261 255 241 251 238 241 246 262 265
336 320 306 313 323 319 333 0 8 6 17 19 20 328 268 204 252 165 208 202 225 241 205 241 216 218 220 235 235 228 243 226 230 228 248 231 237 229 219 14 155 230 216 244 237 245 227 231 190 198 226 241 265 222 192 201 237 218 126 110 93 196 118 217 228 233 239 242 253 270 285 288 260 239 235 244 244 253 250 261 256 252 260 246 250 260 266
327 342 347 334 316 311 315 332 0 11 6 21 3 319 273 318 265 178 225 180 233 234 207 220 200 231 188 241 134 224 233 232 253 189 257 199 234 241 228 208 195 226 213 234 246 235 250 233 239 226 239 218 235 209 188 253 241 219 196 175 100 136 210 212 225 229 235 238 248 255 258 261 261 265 262 259 246 241 245 241 249 258 270 262 254 261 266
307 312 327 342 354 349 331 310 339 7 358 3 331 266 236 238 228 263 267 259 201 229 243 237 230 233 206 231 184 235 234 216 235 189 231 231 210 228 171 227 217 228 226 230 242 214 239 229 242 237 236 256 251 261 238 241 224 198 212 197 168 179 228 220 220 233 229 232 241 243 249 248 250 248 249 254 253 244 244 244 250 247 245 259 268 270 271
303 303 309 321 327 336 345 348 328 305 355 2 300 271 275 280 338 284 11 297 313 230 290 255 250 260 228 244 216 239 231 239 214 224 236 214 228 201 249 217 220 225 226 231 243 232 257 245 224 229 228 221 232 251 269 238 231 233 224 195 185 153 230 234 221 239 232 235 236 238 244 247 250 247 245 246 250 251 249 253 250 245 250 256 260 259 261
295 300 305 310 316 317 323 325 338 342 322 302 283 247 254 274 318 296 2 319 307 306 308 310 335 263 258 261 234 250 238 240 238 227 225 241 224 203 234 236 229 222 226 225 236 228 227 240 246 228 225 240 188 239 219 258 262 205 213 185 222 197 224 190 232 241 240 237 240 237 242 241 250 250 251 249 252 253 248 247 250 256 257 253 252 254 262
292 297 298 298 304 308 308 314 317 314 342 280 274 269 266 317 24 128 323 315 299 295 256 249 241 250 228 253 259 264 267 270 261 255 232 236 236 213 230 234 242 234 231 230 235 233 237 237 239 245 231 240 182 217 206 205 226 167 202 172 251 198 251 214 231 246 237 227 237 236 234 233 237 244 252 252 246 245 242 241 235 235 241 244 247 251 252
289 289 290 292 289 293 295 297 304 305 320 287 278 270 274 295 255 255 214 270 263 277 300 281 284 249 215 238 256 260 277 272 290 285 259 261 261 265 262 253 252 250 242 239 236 241 244 246 249 249 249 249 246 224 232 199 200 189 199 176 178 188 186 207 223 243 242 228 230 237 239 240 236 227 235 242 242 238 244 246 250 246 243 245 243 242 241
283 282 283 283 284 282 284 285 284 292 301 266 257 264 276 279 302 335 270 277 237 254 268 253 251 276 292 268 281 260 265 264 261 263 275 319 293 315 313 312 292 290 272 297 343 331 324 315 310 305 288 275 260 249 218 219 201 171 172 180 199 199 211 227 201 245 245 223 242 240 241 226 226 203 219 225 238 241 242 243 244 245 236 237 235 249 254
279 277 275 276 276 276 276 276 275 272 272 266 273 275 275 321 307 230 281 273 273 287 268 265 266 324 291 317 325 319 320 318 305 307 304 310 311 316 313 307 303 280 338 346 344 336 318 307 298 281 259 269 282 277 264 236 226 217 187 200 206 206 215 235 209 243 244 238 245 247 233 241 224 221 220 230 240 243 245 245 242 246 251 252 249 249 250
276 276 277 275 271 269 268 266 266 267 263 259 253 251 257 234 230 259 262 265 274 281 288 275 291 281 287 306 308 298 296 295 298 294 287 298 303 306 296 301 293 299 359 336 329 327 319 306 292 273 275 274 251 249 250 247 240 220 219 212 219 221 212 223 225 225 259 232 217 246 248 106 288 207 216 220 237 241 250 254 248 247 244 246 248 245 245
275 275 274 273 273 271 268 266 265 262 258 254 257 254 258 232 219 217 211 253 254 248 262 283 269 270 279 288 300 304 307 294 293 297 293 295 288 288 299 296 313 346 329 326 314 312 303 303 289 281 258 233 256 244 233 234 230 221 218 214 213 223 228 215 248 192 239 222 224 240 272 276 154 161 207 198 221 219 220 244 239 230 237 237 246 248 249
274 273 272 271 269 269 268 267 266 263 262 253 241 260 254 234 213 220 250 246 264 270 260 259 258 272 288 288 289 292 294 296 298 285 288 293 283 276 286 317 341 328 314 317 288 271 262 297 277 283 271 242 249 255 162 245 226 222 224 218 217 217 224 213 230 216 205 236 237 251 226 237 233 213 207 214 224 228 232 235 260 204 239 229 241 244 245
271 267 267 266 267 266 266 266 264 261 258 254 249 237 230 233 243 235 227 238 268 262 236 247 264 267 271 272 293 286 295 302 285 285 286 285 295 326 329 333 331 321 348 321 293 267 256 262 268 267 263 262 268 280 229 238 299 240 220 223 221 221 222 228 225 238 218 230 233 232 239 246 192 225 214 222 225 230 242 253 260 151 216 203 228 235 235
270 271 268 266 265 265 263 262 262 261 257 253 254 241 244 219 230 221 231 238 232 247 283 159 158 266 293 282 258 239 227 248 282 300 294 279 291 282 299 310 308 310 340 325 278 263 260 261 266 266 269 265 266 255 282 233 263 259 260 246 231 229 221 224 237 238 222 249 237 244 219 257 210 218 212 224 224 231 252 263 269 163 217 215 226 234 239
265 266 267 267 265 264 264 262 261 258 257 254 246 240 249 224 218 218 236 242 246 261 247 251 256 253 248 253 265 265 265 270 259 258 263 280 293 289 281 43 337 262 296 291 275 276 275 268 269 271 271 246 281 300 255 279 253 182 220 200 212 225 223 214 227 221 225 223 243 249 262 263 216 215 220 222 219 204 238 246 293 286 232 248 247 251 257
268 266 264 264 263 262 261 262 260 259 258 256 252 258 246 227 214 207 238 247 246 252 249 252 228 241 246 267 260 267 249 264 284 290 296 299 259 262 150 218 227 302 245 279 312 283 294 283 290 280 280 284 266 272 351 284 278 338 348 330 290 277 251 253 236 236 231 231 242 242 258 276 304 269 239 178 62 253 247 346 359 15 22 10 13 10 13
270 268 266 264 263 263 262 262 262 261 257 254 247 235 249 227 202 206 219 241 238 257 257 251 237 250 244 243 250 247 250 242 215 253 254 262 305 319 338 322 243 205 283 239 255 239 265 272 283 316 279 290 292 331 338 270 11 140 320 288 266 322 307 303 231 250 247 235 249 237 226 33 23 345 318 21 264 16 340 312 347 18 27 10 2 6 0
272 273 272 269 268 266 266 263 262 260 257 256 254 255 261 234 224 226 219 236 256 267 261 254 249 250 237 241 245 247 248 255 258 263 256 264 306 341 273 239 8 62 254 265 280 282 296 301 321 274 304 354 291 323 276 317 310 292 263 275 295 300 283 287 309 1 332 297 250 254 65 347 5 30 341 336 314 321 334 5 331 357 17 9 352 347 350
270 271 269 266 264 263 262 264 264 262 261 258 254 234 243 235 207 216 220 215 236 242 259 286 333 272 271 255 243 243 244 249 249 246 256 263 244 240 252 283 268 228 250 308 307 295 254 270 303 298 295 292 297 262 294 302 277 295 283 180 270 201 270 321 300 299 301 274 302 299 310 335 285 80 302 291 310 303 313 344 350 348 347 354 349 338 335
268 266 264 264 263 263 264 263 259 260 260 256 251 244 248 255 220 208 215 240 238 251 253 259 257 255 245 250 252 250 248 249 267 249 225 234 251 231 243 253 259 232 236 223 238 248 270 279 259 275 282 249 270 289 272 221 281 293 291 270 288 329 307 306 285 260 265 274 263 275 317 314 310 299 274 297 308 302 304 348 332 334 318 340 329 320 320
266 267 266 265 264 263 261 259 258 257 255 255 253 225 254 240 234 219 223 238 243 262 256 236 245 235 228 239 240 238 238 237 233 237 230 230 251 256 245 231 245 255 241 231 221 246 251 253 254 263 263 271 284 271 286 290 274 303 291 290 281 287 301 305 283 302 316 278 334 301 309 309 308 307 310 320 277 303 333 315 318 313 317 314 315 305 302
269 269 267 265 263 263 262 263 263 263 263 261 257 247 239 255 231 208 218 242 237 231 253 254 224 233 235 232 239 243 225 225 225 228 230 224 226 238 243 235 222 250 251 247 211 178 227 256 266 250 263 259 295 276 257 269 275 291 279 280 326 288 326 297 287 290 270 282 293 296 300 285 281 286 303 320 330 284 296 305 306 311 310 304 299 304 300
265 266 268 268 265 263 264 267 267 265 264 262 260 245 221 234 213 190 218 241 251 251 265 256 266 235 212 217 224 225 230 228 222 222 219 218 220 225 245 264 257 237 251 255 255 250 247 254 246 254 264 273 217 258 261 250 272 280 266 275 267 285 308 276 307 289 291 287 283 276 282 294 296 297 323 319 310 312 311 313 313 309 309 312 309 304 301
265 264 263 262 261 261 262 263 264 266 267 270 266 251 244 239 210 194 202 201 244 271 235 247 261 295 306 226 229 235 231 226 226 227 228 226 232 225 218 226 240 247 249 253 243 250 245 245 237 254 241 248 263 259 273 273 267 274 269 276 281 280 262 276 290 284 282 284 313 348 326 308 305 302 306 304 308 308 309 314 318 323 322 325 324 326 328
265 265 264 262 263 264 265 267 268 270 269 270 270 266 245 233 215 207 208 207 210 240 267 271 248 211 344 301 262 254 245 226 225 229 232 225 219 220 222 226 227 233 228 231 250 234 232 245 245 241 252 266 256 255 242 255 256 256 251 260 250 261 271 282 277 289 290 307 306 302 289 286 287 299 310 313 313 319 334 339 331 330 330 333 335 330 325
267 265 261 261 262 263 265 267 268 269 272 274 275 273 267 245 241 208 210 209 215 239 246 257 276 270 261 257 149 222 227 220 219 227 231 229 231 233 236 236 233 233 236 232 239 240 245 243 240 234 227 207 250 262 260 252 243 251 245 256 255 260 273 278 280 282 280 283 282 287 287 290 302 308 313 317 346 9 344 333 328 324 326 328 326 323 317
260 262 267 264 263 265 268 269 269 271 273 269 145 295 296 264 208 215 204 200 197 212 236 251 245 244 334 256 232 208 209 204 217 222 220 225 229 228 225 228 235 230 230 227 227 247 239 249 237 238 241 234 254 262 252 255 257 257 257 260 258 263 259 260 264 265 277 286 291 300 303 303 304 305 322 0 356 343 336 325 323 326 323 325 319 318 316
263 264 263 265 266 268 268 269 271 272 272 248 215 232 231 266 215 190 201 200 190 203 223 234 252 286 273 217 189 221 220 216 220 223 229 223 226 226 228 226 234 229 244 239 238 242 242 246 240 236 233 233 244 246 251 257 261 257 244 251 255 262 264 264 264 268 277 298 334 323 293 293 312 338 344 357 338 327 320 323 325 324 321 319 316 312 311
267 262 261 263 266 266 270 273 272 272 266 246 235 215 212 224 188 221 206 197 173 195 211 240 251 226 235 240 212 211 204 212 205 210 223 208 228 222 230 222 237 224 229 239 239 255 238 244 244 245 242 237 238 256 258 254 259 260 257 257 258 258 261 267 272 284 347 33 5 344 322 313 343 348 308 315 316 325 320 316 312 311 315 312 306 302 296
262 267 269 268 267 270 271 272 274 272 251 254 260 261 252 244 302 263 180 127 129 204 177 206 205 239 232 241 8 296 158 151 202 187 234 203 228 202 230 218 227 234 223 241 219 235 213 231 227 248 238 230 241 245 249 250 254 260 259 264 269 266 266 284 321 53 66 32 55 322 294 304 304 304 302 318 321 317 318 315 317 316 312 306 302 300 302
261 259 262 268 271 275 278 281 283 288 288 277 267 230 221 215 215 206 170 134 107 335 326 217 220 210 239 32 30 261 139 168 200 174 232 214 209 194 221 206 207 227 212 214 221 236 228 223 227 242 230 231 222 246 254 252 252 255 260 263 268 293 350 340 343 8 356 347 344 301 278 286 282 297 321 316 310 309 310 307 312 318 315 312 308 308 308
262 262 265 269 275 285 294 290 286 245 241 236 242 237 199 205 209 198 187 141 113 211 142 259 171 261 238 209 204 253 164 134 213 182 213 229 161 202 206 214 217 218 237 173 236 217 237 234 221 241 240 233 245 249 249 257 258 259 261 269 14 354 352 352 326 351 330 327 318 311 297 283 333 325 313 314 314 319 324 318 317 320 313 309 308 310 312
268 269 276 282 292 279 273 241 193 189 207 218 225 196 202 205 209 201 186 209 180 169 171 205 176 213 211 243 239 254 104 228 213 224 213 237 276 208 205 191 239 226 212 217 240 213 234 210 215 243 233 242 241 238 247 248 263 273 60 68 29 36 359 324 324 322 319 314 306 289 291 345 327 306 307 304 310 315 318 312 310 313 303 299 303 308 309
270 279 286 300 113 138 237 238 207 190 218 202 193 173 175 121 27 46 151 217 285 140 196 177 187 203 195 221 79 254 107 255 168 190 202 201 229 154 166 214 240 247 239 245 224 230 235 212 240 258 241 248 248 250 287 30 55 58 63 42 32 8 359 348 332 332 318 317 318 333 353 319 310 305 306 306 309 313 313 311 313 319 314 311 309 309 306
263 246 144 141 142 215 259 215 199 203 213 146 117 81 334 162 124 109 344 132 222 118 226 187 235 217 124 165 241 201 101 237 143 178 264 191 128 249 164 204 211 221 241 224 230 197 239 215 239 237 250 240 254 45 65 64 69 65 55 31 11 6 344 339 343 346 343 336 333 336 339 332 325 318 322 316 316 312 305 299 300 298 296 293 292 295 300
215 177 119 174 196 224 216 225 287 154 108 46 295 119 76 146 108 174 182 171 156 203 195 178 233 216 220 230 246 204 184 158 9 169 200 245 122 287 55 250 243 183 267 241 271 129 245 222 244 238 244 241 236 80 25 62 55 47 36 12 349 352 329 335 352 340 316 276 278 297 297 301 307 305 309 308 303 296 288 290 293 297 299 297 295 295 291
103 160 182 178 217 221 44 299 219 130 135 123 313 177 128 199 149 219 84 108 205 254 151 231 212 216 197 217 228 254 183 206 228 246 226 277 144 199 242 131 279 146 236 228 237 128 191 243 223 227 248 233 107 37 32 18 34 14 7 337 352 327 326 323 315 309 292 290 288 285 290 285 283 285 291 296 299 299 300 298 294 291 293 293 295 295 293
206 122 163 205 157 113 127 63 49 31 124 159 98 305 113 347 158 337 103 219 201 229 177 208 168 199 211 204 207 242 233 155 243 140 205 236 214 72 134 231 236 126 228 230 248 176 243 252 245 238 241 47 47 24 30 2 11 350 342 339 334 315 326 314 311 308 307 294 291 288 283 282 279 279 280 281 283 284 285 288 292 293 296 296 296 294 294
192 169 141 99 89 97 82 76 147 124 260 187 146 202 170 151 58 5 188 183 215 203 272 129 259 201 207 165 194 160 278 126 122 142 81 308 247 174 243 250 287 203 246 238 77 292 274 256 256 257 90 58 48 32 8 354 343 340 323 334 319 317 320 313 306 301 298 297 294 294 289 284 281 278 278 282 282 283 284 289 289 291 290 290 290 292 294
120 116 121 109 139 184 157 211 205 143 182 189 116 229 138 134 187 170 232 205 310 101 251 60 258 43 332 60 335 176 181 67 106 199 154 224 49 61 91 302 109 277 231 350 75 285 240 249 255 252 65 58 51 359 9 332 335 307 320 309 312 317 309 307 307 302 301 294 293 292 294 291 286 281 280 279 281 282 281 280 285 290 292 292 291 292 292
142 133 90 92 108 255 127 228 160 83 205 155 151 193 166 173 213 156 205 219 130 274 310 104 264 105 224 354 142 150 50 348 178 59 259 212 94 224 96 240 224 250 68 9 180 239 242 244 263 98 52 351 4 355 343 343 330 325 316 317 312 308 309 299 305 304 302 297 286 287 286 286 287 289 287 281 280 283 288 289 289 289 290 292 289 289 288
130 164 88 89 200 222 96 244 36 136 200 199 178 216 167 199 211 189 187 314 23 172 5 36 31 33 136 231 55 315 179 209 24 104 234 121 20 236 154 254 225 272 151 240 226 249 235 242 99 26 29 347 346 338 336 330 329 326 317 315 314 316 316 317 310 311 304 304 302 304 299 299 299 296 294 289 286 283 288 291 296 294 293 293 293 292 290
115 151 136 165 200 213 145 219 76 346 276 210 206 342 223 18 56 147 9 305 318 16 42 8 317 85 282 287 123 240 36 161 122 221 196 177 141 244 210 262 62 36 258 238 249 246 250 267 55 7 356 334 330 323 323 313 318 312 322 317 320 320 319 314 309 303 302 304 304 305 302 304 301 300 299 296 294 292 290 288 290 291 295 296 294 293 294
107 80 129 324 129 244 75 167 217 186 39 55 59 26 34 99 75 73 27 336 18 359 314 273 293 299 115 299 25 303 101 335 180 244 69 17 206 267 17 111 253 201 238 248 247 249 259 83 336 350 333 329 322 318 315 318 317 320 315 310 311 311 313 311 308 307 305 307 305 305 304 303 301 297 296 297 296 295 295 296 294 293 294 291 289 293 302
156 133 128 158 207 149 189 225 100 91 43 64 54 47 137 188 113 59 13 346 305 293 330 331 94 131 347 271 81 233 295 181 48 272 170 232 18 55 280 218 235 240 225 235 250 33 47 7 340 328 326 322 318 321 322 322 323 320 319 315 312 311 312 310 309 309 311 310 309 306 302 302 300 299 298 298 299 301 301 299 300 299 293 288 294 305 304
121 151 156 185 173 99 100 104 129 83 36 32 50 54 55 87 71 61 323 341 332 322 306 346 5 48 210 115 169 194 247 173 186 244 68 297 173 227 199 242 241 251 235 4 360 37 328 338 317 319 313 319 321 317 315 315 316 316 317 314 311 308 307 305 305 307 308 305 303 303 302 301 301 300 301 303 302 303 305 305 303 298 296 303 307 303 307
81 58 77 78 86 52 99 64 87 118 99 159 116 70 49 86 97 23 344 346 335 322 254 223 241 207 329 70 344 143 244 228 180 274 170 220 222 257 242 255 234 247 254 47 323 326 321 320 323 316 320 320 317 319 316 317 316 312 310 306 303 303 304 307 307 308 306 304 303 302 302 302 303 306 307 308 306 305 308 309 308 308 311 309 307 307 310
23 61 72 345 152 123 73 173 182 158 157 144 108 65 31 36 50 52 14 340 312 329 18 125 83 129 254 150 140 286 246 38 30 227 200 231 203 223 220 244 267 80 260 281 299 308 315 314 318 315 317 317 316 314 314 311 311 309 308 306 304 305 306 307 305 304 304 304 302 300 300 306 308 307 306 305 307 309 309 310 317 317 316 316 312 318 325
134 122 108 52 43 49 54 110 66 68 58 69 76 25 335 110 24 349 330 324 310 126 122 80 95 148 153 210 222 216 354 43 227 9 244 248 53 219 283 295 296 277 313 315 307 307 304 305 305 306 306 308 312 313 310 309 310 311 310 309 310 311 311 310 307 305 303 300 297 298 305 308 308 307 309 310 311 315 317 318 321 321 322 318 342 344 338